.
WxDataArchive / Data Records for 2014-07-11
2014-07-10 July 2014 2014-07-12

Data Records for Friday, 11 July 2014

Time	Temp	Chill	HIndex	Humid	Dewpt	 Wind 	HiWind	WindDir	Rain 	Barom
-----	----	-----	------	-----	-----	------	------	-------	-----	-----
00:00	62.1	62.1	62.1	79	55.5	0	0	---	0.00	30.147 
00:05	62.0	62.0	62.0	79	55.4	0	0	---	0.00	30.147 
00:10	61.8	61.8	61.8	80	55.6	0	0	---	0.00	30.147 
00:15	61.6	61.6	61.6	80	55.4	0	0	---	0.00	30.148 
00:20	61.5	61.5	61.5	81	55.6	0	0	---	0.00	30.148 
00:25	61.3	61.3	61.3	81	55.4	0	0	---	0.00	30.148 
00:30	61.2	61.2	61.2	81	55.3	0	0	---	0.00	30.152 
00:35	61.0	61.0	61.0	82	55.5	0	0	---	0.00	30.152 
00:40	60.9	60.9	60.9	82	55.4	0	0	---	0.00	30.152 
00:45	60.9	60.9	60.9	83	55.7	0	0	---	0.00	30.154 
00:50	60.7	60.7	60.7	83	55.5	0	0	---	0.00	30.154 
00:55	60.5	60.5	60.5	83	55.3	0	0	---	0.00	30.154 
01:00	60.5	60.5	60.5	83	55.3	0	0	---	0.00	30.158 
01:05	60.4	60.4	60.4	84	55.5	0	0	---	0.00	30.158 
01:10	60.4	60.4	60.4	84	55.5	0	0	---	0.00	30.158 
01:15	60.2	60.2	60.2	84	55.3	0	0	---	0.00	30.159 
01:20	60.1	60.1	60.1	84	55.2	0	0	---	0.00	30.159 
01:25	59.9	59.9	59.9	84	55.0	0	0	---	0.00	30.159 
01:30	59.8	59.8	59.8	84	55.0	0	0	---	0.00	30.162 
01:35	59.8	59.8	59.8	85	55.3	0	0	---	0.00	30.162 
01:40	59.8	59.8	59.8	85	55.3	0	0	---	0.00	30.162 
01:45	59.6	59.6	59.6	85	55.1	0	0	---	0.00	30.155 
01:50	59.5	59.5	59.5	85	55.0	0	0	---	0.00	30.155 
01:55	59.5	59.5	59.5	85	55.0	0	0	---	0.00	30.155 
02:00	59.3	59.3	59.3	86	55.1	0	0	---	0.00	30.159 
02:05	59.3	59.3	59.3	86	55.1	0	0	---	0.00	30.159 
02:10	59.2	59.2	59.2	86	55.0	0	0	---	0.00	30.159 
02:15	59.2	59.2	59.2	86	55.0	0	0	---	0.00	30.159 
02:20	59.2	59.2	59.2	86	55.0	0	0	---	0.00	30.159 
02:25	59.0	59.0	59.0	86	54.8	0	0	---	0.00	30.159 
02:30	59.0	59.0	59.0	86	54.8	0	0	---	0.00	30.159 
02:35	58.9	58.9	58.9	86	54.7	0	0	---	0.00	30.159 
02:40	58.9	58.9	58.9	87	55.0	0	0	---	0.00	30.159 
02:45	58.9	58.9	58.9	87	55.0	0	0	---	0.00	30.161 
02:50	58.9	58.9	58.9	87	55.0	0	0	---	0.00	30.161 
02:55	58.7	58.7	58.7	87	54.8	0	0	---	0.00	30.161 
03:00	58.7	58.7	58.7	87	54.8	0	0	---	0.00	30.156 
03:05	58.6	58.6	58.6	88	55.1	0	0	---	0.00	30.156 
03:10	58.6	58.6	58.6	88	55.1	0	0	---	0.00	30.156 
03:15	58.4	58.4	58.4	88	54.9	0	0	---	0.00	30.154 
03:20	58.4	58.4	58.4	88	54.9	0	0	---	0.00	30.154 
03:25	58.4	58.4	58.4	88	54.9	0	0	---	0.00	30.154 
03:30	58.4	58.4	58.4	88	54.9	0	0	---	0.00	30.153 
03:35	58.4	58.4	58.4	88	54.9	0	0	---	0.00	30.153 
03:40	58.3	58.3	58.3	88	54.8	0	0	---	0.00	30.153 
03:45	58.3	58.3	58.3	88	54.8	0	0	---	0.00	30.154 
03:50	58.1	58.1	58.1	88	54.6	0	0	---	0.00	30.154 
03:55	58.1	58.1	58.1	88	54.6	0	0	---	0.00	30.154 
04:00	58.0	58.0	58.0	89	54.8	0	0	---	0.00	30.151 
04:05	58.0	58.0	58.0	89	54.8	0	0	---	0.00	30.151 
04:10	57.8	57.8	57.8	89	54.6	0	0	---	0.00	30.151 
04:15	57.6	57.6	57.6	89	54.4	0	0	---	0.00	30.148 
04:20	57.5	57.5	57.5	89	54.3	0	0	---	0.00	30.148 
04:25	57.3	57.3	57.3	89	54.1	0	0	---	0.00	30.148 
04:30	57.3	57.3	57.3	90	54.4	0	0	---	0.00	30.149 
04:35	57.3	57.3	57.3	90	54.4	0	0	---	0.00	30.149 
04:40	57.2	57.2	57.2	90	54.3	0	0	---	0.00	30.149 
04:45	57.2	57.2	57.2	90	54.3	0	0	---	0.00	30.152 
04:50	57.0	57.0	57.0	90	54.1	0	0	---	0.00	30.152 
04:55	56.9	56.9	56.9	90	54.0	0	0	---	0.00	30.152 
05:00	56.9	56.9	56.9	91	54.3	0	0	---	0.00	30.155 
05:05	56.7	56.7	56.7	91	54.1	0	0	---	0.00	30.155 
05:10	56.7	56.7	56.7	91	54.1	0	0	---	0.00	30.155 
05:15	56.7	56.7	56.7	91	54.1	0	0	---	0.00	30.161 
05:20	56.6	56.6	56.6	91	54.0	0	0	---	0.00	30.161 
05:25	56.6	56.6	56.6	91	54.0	0	0	---	0.00	30.161 
05:30	56.5	56.5	56.5	91	53.9	0	0	---	0.00	30.159 
05:35	56.3	56.3	56.3	91	53.7	0	0	---	0.00	30.159 
05:40	56.3	56.3	56.3	92	54.0	0	0	---	0.00	30.159 
05:45	56.2	56.2	56.2	92	53.9	0	0	---	0.00	30.166 
05:50	56.2	56.2	56.2	92	53.9	0	0	---	0.00	30.166 
05:55	56.2	56.2	56.2	92	53.9	0	0	---	0.00	30.166 
06:00	56.0	56.0	56.0	92	53.7	0	0	---	0.00	30.169 
06:05	55.9	55.9	55.9	92	53.6	0	0	---	0.00	30.169 
06:10	55.9	55.9	55.9	92	53.6	0	0	---	0.00	30.169 
06:15	55.7	55.7	55.7	92	53.4	0	0	---	0.00	30.176 
06:20	55.7	55.7	55.7	92	53.4	0	0	---	0.00	30.176 
06:25	55.7	55.7	55.7	92	53.4	0	0	---	0.00	30.176 
06:30	55.7	55.7	55.7	92	53.4	0	0	---	0.00	30.181 
06:35	55.7	55.7	55.7	92	53.4	0	0	---	0.00	30.181 
06:40	55.6	55.6	55.6	92	53.3	0	0	---	0.00	30.181 
06:45	55.7	55.7	55.7	92	53.4	0	0	---	0.00	30.182 
06:50	55.7	55.7	55.7	93	53.7	0	0	---	0.00	30.182 
06:55	55.7	55.7	55.7	93	53.7	0	0	---	0.00	30.182 
07:00	55.9	55.9	55.9	93	53.9	0	0	---	0.00	30.180 
07:05	56.0	56.0	56.0	93	54.0	0	0	---	0.00	30.180 
07:10	56.3	56.3	56.3	93	54.3	0	0	---	0.00	30.180 
07:15	56.6	56.6	56.6	94	54.9	0	0	---	0.00	30.181 
07:20	57.0	57.0	57.0	94	55.3	0	0	---	0.00	30.181 
07:25	57.5	57.5	57.5	94	55.8	0	1	315	0.00	30.181 
07:30	58.4	58.4	58.4	95	57.0	0	1	315	0.00	30.182 
07:35	59.3	59.3	59.3	94	57.6	0	1	315	0.00	30.182 
07:40	60.2	60.2	60.2	94	58.5	0	1	315	0.00	30.182 
07:45	60.9	60.9	60.9	91	58.3	1	3	68	0.00	30.179 
07:50	61.3	61.3	61.3	89	58.0	0	1	90	0.00	30.179 
07:55	62.0	62.0	62.0	88	58.4	0	2	90	0.00	30.179 
08:00	62.6	62.6	62.6	86	58.3	0	3	90	0.00	30.179 
08:05	63.1	63.1	63.1	85	58.5	0	3	90	0.00	30.179 
08:10	63.5	63.5	63.5	83	58.2	1	3	90	0.00	30.179 
08:15	64.2	64.2	64.2	83	58.9	0	1	90	0.00	30.186 
08:20	64.8	64.8	64.8	81	58.8	0	1	90	0.00	30.186 
08:25	65.3	65.3	65.3	79	58.6	0	3	90	0.00	30.186 
08:30	65.8	65.8	65.8	79	59.1	0	2	90	0.00	30.191 
08:35	66.3	66.3	66.3	77	58.9	0	1	90	0.00	30.191 
08:40	66.8	66.8	66.8	77	59.3	0	2	90	0.00	30.191 
08:45	67.1	67.1	67.1	77	59.6	0	2	90	0.00	30.190 
08:50	67.1	67.1	67.1	77	59.6	1	4	90	0.00	30.190 
08:55	67.4	67.4	67.4	76	59.6	1	3	90	0.00	30.190 
09:00	67.9	67.9	67.9	76	60.0	0	1	90	0.00	30.188 
09:05	68.4	68.4	68.4	76	60.5	0	2	90	0.00	30.188 
09:10	68.4	68.4	68.4	75	60.2	1	4	90	0.00	30.188 
09:15	68.4	68.4	68.4	77	60.9	1	4	90	0.00	30.192 
09:20	68.6	68.6	68.6	76	60.7	1	3	90	0.00	30.192 
09:25	68.9	68.9	68.9	76	61.0	1	4	90	0.00	30.192 
09:30	69.6	69.6	69.6	75	61.3	0	2	90	0.00	30.193 
09:35	70.1	70.1	70.1	73	61.0	1	3	90	0.00	30.193 
09:40	70.6	70.6	70.6	72	61.1	0	2	90	0.00	30.193 
09:45	70.9	70.9	70.9	71	61.0	1	4	90	0.00	30.193 
09:50	71.3	71.3	71.3	70	61.0	1	3	90	0.00	30.193 
09:55	71.5	71.5	71.5	68	60.4	1	4	90	0.00	30.193 
10:00	71.8	71.8	71.8	68	60.7	1	4	90	0.00	30.194 
10:05	72.3	72.3	72.3	66	60.3	0	3	112	0.00	30.194 
10:10	72.8	72.8	72.8	67	61.2	1	3	112	0.00	30.194 
10:15	73.0	73.0	73.0	65	60.5	1	4	112	0.00	30.201 
10:20	72.8	72.8	72.8	67	61.2	1	3	90	0.00	30.201 
10:25	73.0	73.0	73.0	67	61.4	0	2	90	0.00	30.201 
10:30	73.7	73.7	73.7	65	61.2	1	3	90	0.00	30.207 
10:35	74.0	74.0	74.0	63	60.6	1	3	90	0.00	30.207 
10:40	74.6	74.6	74.6	62	60.7	0	2	90	0.00	30.207 
10:45	75.3	75.3	77.5	61	60.9	0	2	90	0.00	30.208 
10:50	75.8	75.8	77.8	62	61.8	0	1	90	0.00	30.208 
10:55	76.1	76.1	78.1	58	60.2	0	2	90	0.00	30.208 
11:00	76.1	76.1	78.1	58	60.2	0	3	90	0.00	30.206 
11:05	76.3	76.3	78.2	60	61.4	0	1	90	0.00	30.206 
11:10	76.7	76.7	78.5	57	60.3	0	3	90	0.00	30.206 
11:15	76.1	76.1	78.1	61	61.7	1	4	90	0.00	30.203 
11:20	76.5	76.5	78.4	59	61.1	1	4	90	0.00	30.203 
11:25	76.3	76.3	78.2	59	60.9	1	5	90	0.00	30.203 
11:30	76.5	76.5	78.4	54	58.6	0	2	90	0.00	30.198 
11:35	77.0	77.0	78.7	53	58.5	0	2	90	0.00	30.198 
11:40	77.4	77.4	78.9	51	57.8	0	1	90	0.00	30.198 
11:45	77.7	77.7	79.2	54	59.7	0	1	90	0.00	30.202 
11:50	77.7	77.7	79.1	51	58.1	0	3	90	0.00	30.202 
11:55	78.1	78.1	79.5	54	60.1	0	2	90	0.00	30.202 
12:00	78.1	78.1	79.3	50	57.9	1	3	90	0.00	30.206 
12:05	77.4	77.4	78.9	52	58.4	0	2	90	0.00	30.206 
12:10	77.4	77.4	78.8	50	57.3	1	4	90	0.00	30.206 
12:15	77.4	77.4	78.8	50	57.3	1	4	90	0.00	30.202 
12:20	77.4	77.4	78.8	50	57.3	0	2	90	0.00	30.202 
12:25	77.6	77.6	79.0	51	58.0	0	1	90	0.00	30.202 
12:30	78.1	78.1	79.3	49	57.4	0	1	90	0.00	30.194 
12:35	78.6	78.6	79.5	48	57.2	0	2	90	0.00	30.194 
12:40	79.0	79.0	79.8	48	57.6	0	2	90	0.00	30.194 
12:45	79.0	79.0	79.7	46	56.4	1	3	135	0.00	30.193 
12:50	78.6	78.6	79.6	49	57.8	1	4	68	0.00	30.193 
12:55	78.5	78.5	79.4	47	56.6	1	6	68	0.00	30.193 
13:00	78.6	78.6	79.6	49	57.8	1	3	68	0.00	30.192 
13:05	78.6	78.6	79.4	46	56.1	0	3	112	0.00	30.192 
13:10	78.8	78.8	79.5	45	55.6	1	3	135	0.00	30.192 
13:15	79.2	79.2	79.7	44	55.4	1	3	135	0.00	30.192 
13:20	79.6	79.6	80.1	46	57.0	0	2	112	0.00	30.192 
13:25	79.6	79.6	80.0	45	56.4	1	3	112	0.00	30.192 
13:30	79.6	79.6	80.1	46	57.0	1	3	0	0.00	30.192 
13:35	79.8	79.8	80.2	45	56.5	0	2	0	0.00	30.192 
13:40	79.4	79.4	79.8	44	55.6	0	2	45	0.00	30.192 
13:45	79.2	79.2	79.9	47	57.2	0	1	45	0.00	30.190 
13:50	79.4	79.4	79.9	45	56.2	1	4	90	0.00	30.190 
13:55	79.4	79.4	79.8	43	54.9	0	2	90	0.00	30.190 
14:00	79.4	79.4	80.0	46	56.8	0	0	---	0.00	30.182 
14:05	79.6	79.6	80.0	44	55.7	0	2	90	0.00	30.182 
14:10	79.9	79.9	79.9	41	54.1	1	3	135	0.00	30.182 
14:15	80.1	80.1	80.0	40	53.6	1	2	90	0.00	30.180 
14:20	80.5	80.5	80.3	40	53.9	0	3	90	0.00	30.180 
14:25	80.9	80.9	80.7	41	55.0	0	3	90	0.00	30.180 
14:30	81.4	81.4	81.3	43	56.7	0	2	90	0.00	30.177 
14:35	81.2	81.2	80.9	41	55.2	0	2	90	0.00	30.177 
14:40	81.4	81.4	81.4	44	57.4	1	4	90	0.00	30.177 
14:45	81.4	81.4	81.5	45	58.0	1	3	68	0.00	30.169 
14:50	81.4	81.4	80.9	39	54.0	1	2	68	0.00	30.169 
14:55	81.2	81.2	81.1	43	56.5	0	2	68	0.00	30.169 
15:00	81.2	81.2	81.2	44	57.2	0	1	68	0.00	30.163 
15:05	81.2	81.2	80.7	39	53.9	0	3	68	0.00	30.163 
15:10	81.1	81.1	81.0	43	56.5	0	2	68	0.00	30.163 
15:15	81.2	81.2	80.8	40	54.6	0	2	68	0.00	30.162 
15:20	81.4	81.4	81.3	43	56.7	0	2	68	0.00	30.162 
15:25	81.4	81.4	81.1	41	55.4	1	3	68	0.00	30.162 
15:30	81.4	81.4	81.2	42	56.1	0	2	68	0.00	30.151 
15:35	81.4	81.4	81.3	43	56.7	1	5	68	0.00	30.151 
15:40	81.4	81.4	81.1	41	55.4	1	4	90	0.00	30.151 
15:45	81.4	81.4	81.5	45	58.0	1	3	90	0.00	30.152 
15:50	81.6	81.6	81.0	39	54.2	1	4	90	0.00	30.152 
15:55	81.8	81.8	81.1	38	53.7	1	4	112	0.00	30.152 
16:00	82.2	82.2	81.9	42	56.8	1	4	112	0.00	30.151 
16:05	82.4	82.4	81.4	37	53.5	1	3	112	0.00	30.151 
16:10	82.2	82.2	82.0	43	57.4	1	2	112	0.00	30.151 
16:15	82.0	82.0	81.5	40	55.3	1	4	112	0.00	30.148 
16:20	82.2	82.2	81.6	40	55.4	1	3	112	0.00	30.148 
16:25	82.4	82.4	81.8	40	55.6	1	2	112	0.00	30.148 
16:30	82.6	82.6	81.8	39	55.1	0	2	112	0.00	30.143 
16:35	82.6	82.6	82.2	42	57.2	0	2	225	0.00	30.143 
16:40	82.6	82.6	82.1	41	56.5	0	2	112	0.00	30.143 
16:45	82.4	82.4	81.8	40	55.6	1	5	68	0.00	30.138 
16:50	82.2	82.2	81.6	40	55.4	1	3	68	0.00	30.138 
16:55	82.2	82.2	81.5	39	54.7	0	1	45	0.00	30.138 
17:00	82.2	82.2	81.3	37	53.3	0	2	45	0.00	30.131 
17:05	82.4	82.4	81.6	38	54.2	0	2	45	0.00	30.131 
17:10	82.6	82.6	82.0	40	55.8	0	3	45	0.00	30.131 
17:15	82.4	82.4	81.4	37	53.5	1	3	112	0.00	30.128 
17:20	82.2	82.2	81.5	39	54.7	0	1	112	0.00	30.128 
17:25	82.0	82.0	81.3	39	54.6	1	3	112	0.00	30.128 
17:30	82.0	82.0	81.5	40	55.3	0	1	112	0.00	30.122 
17:35	82.0	82.0	81.3	39	54.6	0	3	112	0.00	30.122 
17:40	82.2	82.2	81.3	37	53.3	0	2	112	0.00	30.122 
17:45	82.4	82.4	81.2	35	52.0	0	1	112	0.00	30.123 
17:50	82.4	82.4	81.4	37	53.5	1	2	112	0.00	30.123 
17:55	82.4	82.4	81.3	36	52.7	0	2	112	0.00	30.123 
18:00	82.2	82.2	81.2	36	52.6	0	1	112	0.00	30.122 
18:05	82.0	82.0	81.0	36	52.4	1	4	112	0.00	30.122 
18:10	81.6	81.6	80.8	37	52.8	0	2	112	0.00	30.122 
18:15	81.4	81.4	81.1	41	55.4	0	2	112	0.00	30.117 
18:20	81.1	81.1	80.5	38	53.1	0	3	112	0.00	30.117 
18:25	80.7	80.7	80.4	40	54.1	0	3	112	0.00	30.117 
18:30	80.3	80.3	80.3	42	55.1	0	1	112	0.00	30.107 
18:35	80.1	80.1	80.3	43	55.6	0	0	---	0.00	30.107 
18:40	79.9	79.9	80.1	43	55.4	0	1	112	0.00	30.107 
18:45	79.8	79.8	80.2	45	56.5	0	1	112	0.00	30.113 
18:50	79.8	79.8	80.1	44	55.9	0	1	112	0.00	30.113 
18:55	79.6	79.6	79.9	43	55.1	0	1	112	0.00	30.113 
19:00	79.4	79.4	79.8	44	55.6	0	0	---	0.00	30.110 
19:05	79.4	79.4	79.8	44	55.6	0	1	112	0.00	30.110 
19:10	79.2	79.2	79.6	43	54.7	0	1	112	0.00	30.110 
19:15	79.0	79.0	79.6	44	55.2	0	1	112	0.00	30.108 
19:20	78.8	78.8	79.6	46	56.2	0	0	---	0.00	30.108 
19:25	78.6	78.6	79.4	45	55.5	0	1	112	0.00	30.108 
19:30	78.6	78.6	79.4	45	55.5	0	1	112	0.00	30.110 
19:35	78.6	78.6	79.4	45	55.5	0	1	112	0.00	30.110 
19:40	78.6	78.6	79.4	46	56.1	0	1	112	0.00	30.110 
19:45	78.6	78.6	79.5	47	56.7	0	0	---	0.00	30.110 
19:50	78.6	78.6	79.5	47	56.7	0	0	---	0.00	30.110 
19:55	78.5	78.5	79.4	47	56.6	0	1	112	0.00	30.110 
20:00	78.3	78.3	79.3	48	57.0	0	0	---	0.00	30.114 
20:05	78.1	78.1	79.3	50	57.9	0	0	---	0.00	30.114 
20:10	77.9	77.9	79.1	48	56.6	0	0	---	0.00	30.114 
20:15	77.7	77.7	79.0	49	57.0	0	0	---	0.00	30.109 
20:20	77.6	77.6	78.9	48	56.3	0	0	---	0.00	30.109 
20:25	77.4	77.4	78.8	50	57.3	0	0	---	0.00	30.109 
20:30	77.0	77.0	78.6	49	56.4	0	0	---	0.00	30.109 
20:35	76.8	76.8	78.5	50	56.7	0	0	---	0.00	30.109 
20:40	76.7	76.7	78.5	52	57.7	0	0	---	0.00	30.109 
20:45	76.3	76.3	78.2	53	57.9	0	0	---	0.00	30.107 
20:50	76.1	76.1	78.1	54	58.2	0	0	---	0.00	30.107 
20:55	75.8	75.8	78.0	54	57.9	0	0	---	0.00	30.107 
21:00	75.6	75.6	77.8	55	58.3	0	0	---	0.00	30.106 
21:05	75.4	75.4	77.7	55	58.1	0	0	---	0.00	30.106 
21:10	75.1	75.1	77.6	54	57.3	0	0	---	0.00	30.106 
21:15	75.1	75.1	77.5	57	58.8	0	0	---	0.00	30.103 
21:20	74.9	74.9	74.9	56	58.1	0	0	---	0.00	30.103 
21:25	74.6	74.6	74.6	55	57.3	0	0	---	0.00	30.103 
21:30	74.4	74.4	74.4	55	57.2	0	0	---	0.00	30.107 
21:35	74.4	74.4	74.4	55	57.2	0	0	---	0.00	30.107 
21:40	74.4	74.4	74.4	56	57.7	0	0	---	0.00	30.107 
21:45	74.2	74.2	74.2	57	58.0	0	0	---	0.00	30.108 
21:50	74.0	74.0	74.0	57	57.8	0	0	---	0.00	30.108 
21:55	74.0	74.0	74.0	57	57.8	0	0	---	0.00	30.108 
22:00	74.0	74.0	74.0	58	58.3	0	0	---	0.00	30.109 
22:05	73.9	73.9	73.9	58	58.2	0	0	---	0.00	30.109 
22:10	73.7	73.7	73.7	58	58.0	0	0	---	0.00	30.109 
22:15	73.7	73.7	73.7	58	58.0	0	0	---	0.00	30.122 
22:20	73.5	73.5	73.5	58	57.8	0	0	---	0.00	30.122 
22:25	73.5	73.5	73.5	59	58.3	0	0	---	0.00	30.122 
22:30	73.3	73.3	73.3	59	58.1	0	0	---	0.00	30.131 
22:35	73.3	73.3	73.3	60	58.6	0	0	---	0.00	30.131 
22:40	73.3	73.3	73.3	61	59.0	0	0	---	0.00	30.131 
22:45	73.2	73.2	73.2	62	59.4	0	0	---	0.00	30.134 
22:50	73.0	73.0	73.0	62	59.2	0	0	---	0.00	30.134 
22:55	72.8	72.8	72.8	62	59.0	0	0	---	0.00	30.134 
23:00	72.8	72.8	72.8	63	59.5	0	0	---	0.00	30.131 
23:05	72.7	72.7	72.7	62	58.9	0	0	---	0.00	30.131 
23:10	72.7	72.7	72.7	63	59.4	0	0	---	0.00	30.131 
23:15	72.5	72.5	72.5	64	59.6	0	0	---	0.00	30.132 
23:20	72.5	72.5	72.5	64	59.6	0	0	---	0.00	30.132 
23:25	72.3	72.3	72.3	64	59.4	0	0	---	0.00	30.132 
23:30	72.3	72.3	72.3	65	59.9	0	0	---	0.00	30.133 
23:35	72.1	72.1	72.1	66	60.1	0	0	---	0.00	30.133 
23:40	72.1	72.1	72.1	65	59.7	0	0	---	0.00	30.133 
23:45	72.0	72.0	72.0	65	59.6	0	0	---	0.00	30.130 
23:50	71.8	71.8	71.8	64	59.0	0	0	---	0.00	30.130 
23:55	71.8	71.8	71.8	65	59.4	0	0	---	0.00	30.130 

CoCoRaHS
IN-AL-39
A2 Web Hosting
Creative Commons License
GoDaddy
search engine by freefind advanced

loaded 2018-11-15 15:44:31 • last modified 2010-11-18 10:43:29
Privacy PolicyDisclaimer
• wx.awcolley.com is powered by PmWiki v.2002016 •
• all content (unless otherwise noted) © 2018 A W Colley